Regional Weather Roundup
Issued by NWS Sioux Falls, SD

Home | Current Version | Previous Version | Text Only | Print | Product List | Glossary Off
Versions: 1 2 3 4 5 6 7 8 9 10 11 12 13 14 15 16 17 18 19 20 21 22 23 24 25 26 27 28 29 30 31 32 33 34 35 36 37 38 39 40 41 42 43 44 45 46 47 48 49 50

000
ASUS43 KFSD 190902
RWRFSD

WEATHER ROUNDUP FOR SE SOUTH DAKOTA/SW MINNESOTA/NW IOWA
NATIONAL WEATHER SERVICE SIOUX FALLS SD
400 AM CDT SAT AUG 19 2017

NOTE: "FAIR" INDICATES FEW OR NO CLOUDS BELOW 12,000 FEET WITH NO
SIGNIFICANT WEATHER AND OR OBSTRUCTIONS TO VISIBILITY.


SDZ038>040-050-052>070-191000-
SOUTHEAST SOUTH DAKOTA

CITY           SKY/WX    TMP DP  RH WIND       PRES   REMARKS
BROOKINGS      CLEAR     54  54 100 CALM      29.94S
CHAMBERLAIN    CLEAR     58  58 100 CALM      29.96S
HURON          CLEAR     58  56  93 SE5       29.94S
MADISON        FAIR      54  54 100 N5        29.95F FOG
MITCHELL       CLEAR     55  54  96 CALM      29.95F FOG
SIOUX FALLS    CLEAR     56  56 100 W3        29.94S
WINNER         FAIR      64  57  78 S10       29.96F
YANKTON        CLEAR     56  54  93 W5        29.96S
$$

MNZ071-072-080-081-089-090-097-098-191000-
SOUTHWEST MINNESOTA

CITY           SKY/WX    TMP DP  RH WIND       PRES   REMARKS
FAIRMONT       CLEAR     55  54  96 CALM      29.93F FOG
JACKSON        CLEAR     54  54 100 CALM      29.91S FOG
LUVERNE        MOCLDY    59  55  88 CALM      29.95R
MARSHALL       CLEAR     57  56  96 S3        29.93F
MONTEVIDEO     FOG       55  55 100 CALM      29.92F VSB 1/2
PIPESTONE      CLEAR     57  55  94 CALM      29.94S FOG
REDWOOD FALLS  FOG       57  56  96 W7        29.93R VSB 1/4
TRACY          FOG       59  59 100 CALM      29.94S VSB 1/4
WINDOM         FOG       52  52 100 W6        29.94R VSB 3/4
WORTHINGTON    FOG       59  59 100 NW6       29.96R VSB 1/2
$$

IAZ001>003-012>014-020>022-031-032-NEZ013-014-SDZ071-191000-
NORTHWEST IOWA

CITY           SKY/WX    TMP DP  RH WIND       PRES   REMARKS
CHEROKEE       CLEAR     59  59 100 N3        29.94S
DENISON        CLOUDY    61  59  94 NW3       29.96R
ESTHERVILLE    FOG       53  53 100 CALM      29.93F VSB 3/4
LE MARS        CLEAR     57  57 100 CALM      29.94R
ORANGE CITY    CLEAR     61  61 100 N3        29.93S
SHELDON        CLEAR     55  55 100 NE5       29.92F FOG
SIOUX CITY     CLEAR     58  58 100 W3        29.95S
SPENCER        FOG       54  54 100 NW3       29.95R VSB 1
STORM LAKE     CLEAR     57  55  94 SW7       29.95R FOG
$$

ABBREVIATIONS USED IN REMARKS
   TC - TEMPERATURE IN CELSIUS
  WCI - WIND CHILL INDEX
   HX - HEAT INDEX
  VSB - VISIBILITY





USA.gov is the U.S. government's official web portal to all federal, state and local government web resources and services.